THOR ABLESTAR DEB, 325

Orbit data source: Space-Track

THOR ABLESTAR DEB, 325 is space debris in LEO originally from a launch on Thu, 29 Jun 1961 UTC launched from the Air Force Eastern Test Range (AFETR). Debris objects in space refer to the collection of defunct objects orbiting the Earth. Examples of debris include non-operational satellites, rocket bodies, and fragments generated from explosions, collisions, or faulty payload assembly.

Loading next visibility...
Identifier
325, 1961-015DB
Orbit
LEO
Country
Flag of USUS
Related business
Manufacturer
Unknown
Mission
Spacecraft
Bus & Motor
Unknown
Mass
Unknown
Launch date (UTC)
1961-06-29 (65 years ago)
Launch vehicle
Unknown
Launch site
Air Force Eastern Test Range (AFETR)
Object type
Payload
Rocket body
Debris
Shape & HBR
Unknown shape, 0.1 m
Radar Cross Section
Small (<0.1 m²)

Expand to show TLE details & history
Last TLE update: 16 hours ago

TLE from 16 hours ago
0 THOR ABLESTAR DEB
1 00325U 61015DB  26036.50524524  .00001096  00000-0  51628-3 0  9998
2 00325  66.9133  81.2209 0051119 134.9246 225.6016 14.22910146314424
Epoch: 2026-02-05T12:07Z
TLE epoch observation values (Epoch: 2026-02-05T12:07:33.188Z)
Latitude
0.00001°
Longitude
123.67611°
Altitude
843.471 km
Speed
7.418 km/s
True Right ascension
05h 24m 53s
True Declination
0° 00' 00"
Sunlit
Object was in full shadow at epoch
Visualization orbit readout
Latitude
Unknown
Longitude
Unknown
Altitude
Unknown
Speed
Unknown
Apparent Right ascension
Unknown
Apparent Declination
Unknown
Sunlit
N/A
Visualization observer readout
Local Sidereal Time
06:18:19
Azimuth
Unknown
Elevation
Unknown
Doppler factor
Unknown
Orbital elements
Apogee altitude
850.648 km
Perigee altitude
777.118 km
Semi-major axis
7,192.02 km
Eccentricity
0.00511
Inclination
66.9133°
RAAN
81.2209°
Arg. of periapsis
134.9246°
True anomaly
225.18493°
Mean anomaly
225.6016°
Eccentric anomaly
225.39308°
Mean motion
3.5585 °/min
Orbital period
101.17 mins
BSTAR
0.00051628
Loading maneuver chart data...
Computing Atmospheric mass density...

Documentation

Showing up to 5 results
|